Year,Month,Day,Hour,Minute,Value (Times are PST for temperature in C)
2018,04,26,05,14,7.00
2018,04,26,05,15,7.00
2018,04,26,05,16,6.90
2018,04,26,05,17,6.90
2018,04,26,05,18,6.90
2018,04,26,05,19,6.80
2018,04,26,05,20,6.80
2018,04,26,05,21,6.70
2018,04,26,05,22,6.70
2018,04,26,05,23,6.60
2018,04,26,05,24,6.60
2018,04,26,05,25,6.60
2018,04,26,05,26,6.50
2018,04,26,05,27,6.50
2018,04,26,05,28,6.50
2018,04,26,05,29,6.60
2018,04,26,05,30,6.70
2018,04,26,05,31,6.70
2018,04,26,05,32,6.80
2018,04,26,05,33,6.90
2018,04,26,05,34,7.00
2018,04,26,05,35,7.10
2018,04,26,05,36,7.20
2018,04,26,05,37,7.30
2018,04,26,05,38,7.50
2018,04,26,05,39,7.70
2018,04,26,05,40,7.70
2018,04,26,05,41,8.10
2018,04,26,05,42,8.20
2018,04,26,05,43,8.50
2018,04,26,05,44,8.80
2018,04,26,05,45,8.90
2018,04,26,05,46,9.00
2018,04,26,05,47,9.30
2018,04,26,05,48,9.40
2018,04,26,05,49,9.40
2018,04,26,05,50,9.30
2018,04,26,05,51,9.20
2018,04,26,05,52,9.10
2018,04,26,05,53,9.00
2018,04,26,05,54,8.90
2018,04,26,05,55,8.90
2018,04,26,05,56,8.80
2018,04,26,05,57,8.80
2018,04,26,05,58,8.80
2018,04,26,05,59,8.70
2018,04,26,06,00,8.70
2018,04,26,06,01,8.70
2018,04,26,06,02,8.60
2018,04,26,06,03,8.50
2018,04,26,06,04,8.50
2018,04,26,06,05,8.40
2018,04,26,06,06,8.40
2018,04,26,06,07,8.40
2018,04,26,06,08,8.30
2018,04,26,06,09,8.30
2018,04,26,06,10,8.30
2018,04,26,06,11,8.30
2018,04,26,06,12,8.20
2018,04,26,06,13,8.20
2018,04,26,06,14,8.30
2018,04,26,06,15,8.30
2018,04,26,06,16,8.30
2018,04,26,06,17,8.40
2018,04,26,06,18,8.50
2018,04,26,06,19,8.50
2018,04,26,06,20,8.60
2018,04,26,06,21,8.60
2018,04,26,06,22,8.70
2018,04,26,06,23,8.70
2018,04,26,06,24,8.80
2018,04,26,06,25,8.90
2018,04,26,06,26,9.00
2018,04,26,06,27,9.10
2018,04,26,06,28,9.10
2018,04,26,06,29,9.10
2018,04,26,06,30,9.30
2018,04,26,06,31,9.30
2018,04,26,06,32,9.50
2018,04,26,06,33,9.70
2018,04,26,06,34,9.70
2018,04,26,06,35,9.70
2018,04,26,06,36,9.70
2018,04,26,06,37,9.60
2018,04,26,06,38,9.60
2018,04,26,06,39,9.60
2018,04,26,06,40,9.60
2018,04,26,06,41,9.60
2018,04,26,06,42,9.60
2018,04,26,06,43,9.60
2018,04,26,06,44,9.70
2018,04,26,06,45,9.80
2018,04,26,06,46,9.80
2018,04,26,06,47,9.80
2018,04,26,06,48,9.80
2018,04,26,06,49,9.70
2018,04,26,06,50,9.70
2018,04,26,06,51,9.70
2018,04,26,06,52,9.80
2018,04,26,06,53,9.80
2018,04,26,06,54,9.90
2018,04,26,06,55,9.90
2018,04,26,06,56,10.00
2018,04,26,06,57,10.00
2018,04,26,06,58,10.00
2018,04,26,06,59,10.00
2018,04,26,07,00,10.10
2018,04,26,07,01,10.10
2018,04,26,07,02,10.10
2018,04,26,07,03,10.10
2018,04,26,07,04,10.10
2018,04,26,07,05,10.20
2018,04,26,07,06,10.30
2018,04,26,07,07,10.30
2018,04,26,07,08,10.30
2018,04,26,07,09,10.40
2018,04,26,07,10,10.50
2018,04,26,07,11,10.50
2018,04,26,07,12,10.60
2018,04,26,07,13,10.70
2018,04,26,07,14,10.90
2018,04,26,07,15,11.10
2018,04,26,07,16,11.20
2018,04,26,07,17,11.20
2018,04,26,07,18,11.30
2018,04,26,07,19,11.40
2018,04,26,07,20,11.40
2018,04,26,07,21,11.40
2018,04,26,07,22,11.50
2018,04,26,07,23,11.50
2018,04,26,07,24,11.50
2018,04,26,07,25,11.60
2018,04,26,07,26,11.70
2018,04,26,07,27,11.70
2018,04,26,07,28,11.70
2018,04,26,07,29,11.70
2018,04,26,07,30,11.80
2018,04,26,07,31,11.80
2018,04,26,07,32,11.80
2018,04,26,07,33,12.00
2018,04,26,07,34,12.20
2018,04,26,07,35,12.30
2018,04,26,07,36,12.30
2018,04,26,07,37,12.60
2018,04,26,07,38,12.70
2018,04,26,07,39,12.80
2018,04,26,07,40,13.10
2018,04,26,07,41,13.30
2018,04,26,07,42,13.50
2018,04,26,07,43,13.60
2018,04,26,07,44,13.70
2018,04,26,07,45,13.80
2018,04,26,07,46,14.00
2018,04,26,07,47,14.10
2018,04,26,07,48,14.30
2018,04,26,07,49,14.40
2018,04,26,07,50,14.40
2018,04,26,07,51,14.60
2018,04,26,07,52,14.70
2018,04,26,07,53,14.80
2018,04,26,07,54,14.80
2018,04,26,07,55,15.00
2018,04,26,07,56,15.10
2018,04,26,07,57,15.20
2018,04,26,07,58,15.30
2018,04,26,07,59,15.30
2018,04,26,08,00,15.40
2018,04,26,08,01,15.50
2018,04,26,08,02,15.60
2018,04,26,08,03,15.60
2018,04,26,08,04,15.70
2018,04,26,08,05,15.70
2018,04,26,08,06,15.80
2018,04,26,08,07,15.80
2018,04,26,08,08,15.80
2018,04,26,08,09,15.90
2018,04,26,08,10,16.00
2018,04,26,08,11,16.10
2018,04,26,08,12,16.10
2018,04,26,08,13,16.20
2018,04,26,08,14,16.20
2018,04,26,08,15,16.20
2018,04,26,08,16,16.30
2018,04,26,08,17,16.30
2018,04,26,08,18,16.40
2018,04,26,08,19,16.50
2018,04,26,08,20,16.60
2018,04,26,08,21,16.60
2018,04,26,08,22,16.60
2018,04,26,08,23,16.70
2018,04,26,08,24,16.70
2018,04,26,08,25,16.70
2018,04,26,08,26,16.70
2018,04,26,08,27,16.80
2018,04,26,08,28,16.80
2018,04,26,08,29,16.90
2018,04,26,08,30,16.90
2018,04,26,08,31,16.90
2018,04,26,08,32,16.90
2018,04,26,08,33,16.90
2018,04,26,08,34,17.00
2018,04,26,08,35,17.10
2018,04,26,08,36,17.10
2018,04,26,08,37,17.10
2018,04,26,08,38,17.10
2018,04,26,08,39,17.10
2018,04,26,08,40,17.10
2018,04,26,08,41,17.10
2018,04,26,08,42,17.10
2018,04,26,08,43,17.10
2018,04,26,08,44,17.10
2018,04,26,08,45,17.10
2018,04,26,08,46,17.10
2018,04,26,08,47,17.10
2018,04,26,08,48,17.10
2018,04,26,08,49,17.10
2018,04,26,08,50,17.10
2018,04,26,08,51,17.10
2018,04,26,08,52,17.10
2018,04,26,08,53,17.10
2018,04,26,08,54,17.10
2018,04,26,08,55,17.10
2018,04,26,08,56,17.10
2018,04,26,08,57,17.10
2018,04,26,08,58,17.10
2018,04,26,08,59,17.20
2018,04,26,09,00,17.20
2018,04,26,09,01,17.20
2018,04,26,09,02,17.30
2018,04,26,09,03,17.30
2018,04,26,09,04,17.40
2018,04,26,09,05,17.50
2018,04,26,09,06,17.60
2018,04,26,09,07,17.60
2018,04,26,09,08,17.70
2018,04,26,09,09,17.70
2018,04,26,09,10,17.70
2018,04,26,09,11,17.70
2018,04,26,09,12,17.70
2018,04,26,09,13,17.70
2018,04,26,09,14,17.70
2018,04,26,09,15,17.80
2018,04,26,09,16,17.80
2018,04,26,09,17,17.80
2018,04,26,09,18,17.80
2018,04,26,09,19,17.80
2018,04,26,09,20,18.80
2018,04,26,09,21,19.10
2018,04,26,09,22,19.10
2018,04,26,09,23,19.10
2018,04,26,09,24,19.10
2018,04,26,09,25,19.10
2018,04,26,09,26,19.10
2018,04,26,09,27,19.10
2018,04,26,09,28,19.20
2018,04,26,09,29,19.20
2018,04,26,09,30,19.20
2018,04,26,09,31,19.30
2018,04,26,09,32,19.30
2018,04,26,09,33,19.30
2018,04,26,09,34,19.30
2018,04,26,09,35,19.40
2018,04,26,09,36,19.40
2018,04,26,09,37,19.50
2018,04,26,09,38,19.50
2018,04,26,09,39,19.60
2018,04,26,09,40,19.60
2018,04,26,09,41,19.70
2018,04,26,09,42,19.70
2018,04,26,09,43,19.80
2018,04,26,09,44,19.80
2018,04,26,09,45,19.90
2018,04,26,09,46,19.90
2018,04,26,09,47,19.90
2018,04,26,09,48,20.00
2018,04,26,09,49,20.10
2018,04,26,09,50,20.00
2018,04,26,09,51,19.90
2018,04,26,09,52,20.00
2018,04,26,09,53,20.10
2018,04,26,09,54,20.10
2018,04,26,09,55,20.10
2018,04,26,09,56,20.20
2018,04,26,09,57,20.20
2018,04,26,09,58,20.20
2018,04,26,09,59,20.20
2018,04,26,10,00,20.20
2018,04,26,10,01,20.20
2018,04,26,10,02,20.20
2018,04,26,10,03,20.30
2018,04,26,10,04,20.30
2018,04,26,10,05,20.40
2018,04,26,10,06,20.40
2018,04,26,10,07,20.40
2018,04,26,10,08,20.40
2018,04,26,10,09,20.40
2018,04,26,10,10,20.30
2018,04,26,10,11,20.20
2018,04,26,10,12,20.20
2018,04,26,10,13,20.20
2018,04,26,10,14,20.10
2018,04,26,10,15,20.10
2018,04,26,10,16,20.00
2018,04,26,10,17,20.00
2018,04,26,10,18,20.10
2018,04,26,10,19,20.10
2018,04,26,10,20,20.10
2018,04,26,10,21,20.10
2018,04,26,10,22,20.10
2018,04,26,10,23,20.10
2018,04,26,10,24,20.00
2018,04,26,10,25,19.90
2018,04,26,10,26,19.90
2018,04,26,10,27,19.90
2018,04,26,10,28,19.90
2018,04,26,10,29,19.90
2018,04,26,10,30,19.90
2018,04,26,10,31,19.90
2018,04,26,10,32,19.90
2018,04,26,10,33,19.90
2018,04,26,10,34,19.90
2018,04,26,10,35,19.90
2018,04,26,10,36,19.90
2018,04,26,10,37,19.90
2018,04,26,10,38,19.80
2018,04,26,10,39,19.80
2018,04,26,10,40,19.70
2018,04,26,10,41,19.70
2018,04,26,10,42,19.80
2018,04,26,10,43,19.80
2018,04,26,10,44,19.90
2018,04,26,10,45,19.90
2018,04,26,10,46,20.00
2018,04,26,10,47,20.10
2018,04,26,10,48,20.10
2018,04,26,10,49,20.20
2018,04,26,10,50,20.20
2018,04,26,10,51,20.20
2018,04,26,10,52,20.30
2018,04,26,10,53,20.30
2018,04,26,10,54,20.40
2018,04,26,10,55,20.50
2018,04,26,10,56,20.60
2018,04,26,10,57,20.60
2018,04,26,10,58,20.70
2018,04,26,10,59,20.70
2018,04,26,11,00,20.70
2018,04,26,11,01,20.70
2018,04,26,11,02,20.70
2018,04,26,11,03,20.70
2018,04,26,11,04,20.70
2018,04,26,11,05,20.70
2018,04,26,11,06,20.80
2018,04,26,11,07,20.80
2018,04,26,11,08,20.80
2018,04,26,11,09,20.90
2018,04,26,11,10,20.90
2018,04,26,11,11,20.90
2018,04,26,11,12,20.80
2018,04,26,11,13,20.80
2018,04,26,11,14,20.80
2018,04,26,11,15,20.70
2018,04,26,11,16,20.70
2018,04,26,11,17,20.60
2018,04,26,11,18,20.70
2018,04,26,11,19,20.70
2018,04,26,11,20,20.80
2018,04,26,11,21,20.90
2018,04,26,11,22,20.90
2018,04,26,11,23,20.90
2018,04,26,11,24,20.90
2018,04,26,11,25,21.00
2018,04,26,11,26,21.00
2018,04,26,11,27,21.00
2018,04,26,11,28,21.00
2018,04,26,11,29,21.00
2018,04,26,11,30,21.00
2018,04,26,11,31,21.00
2018,04,26,11,32,21.00
2018,04,26,11,33,21.10
2018,04,26,11,34,21.10
2018,04,26,11,35,21.10
2018,04,26,11,36,21.20
2018,04,26,11,37,21.20
2018,04,26,11,38,21.30
2018,04,26,11,39,21.20
2018,04,26,11,40,21.30
2018,04,26,11,41,21.30
2018,04,26,11,42,21.30
2018,04,26,11,43,21.30
2018,04,26,11,44,21.30
2018,04,26,11,45,21.30
2018,04,26,11,46,21.20
2018,04,26,11,47,21.20
2018,04,26,11,48,21.10
2018,04,26,11,49,21.10
2018,04,26,11,50,21.20
2018,04,26,11,51,21.30
2018,04,26,11,52,21.30
2018,04,26,11,53,21.30
2018,04,26,11,54,21.30
2018,04,26,11,55,21.30
2018,04,26,11,56,21.30
2018,04,26,11,57,21.30
2018,04,26,11,58,21.30
2018,04,26,11,59,21.30
2018,04,26,12,00,21.30
2018,04,26,12,01,21.40
2018,04,26,12,02,21.40
2018,04,26,12,03,21.50
2018,04,26,12,04,21.60
2018,04,26,12,05,21.60
2018,04,26,12,06,21.60
2018,04,26,12,07,21.60
2018,04,26,12,08,21.70
2018,04,26,12,09,21.70
2018,04,26,12,10,21.80
2018,04,26,12,11,21.80
2018,04,26,12,12,21.90
2018,04,26,12,13,21.90
2018,04,26,12,14,22.00
2018,04,26,12,15,22.00
2018,04,26,12,16,22.00
2018,04,26,12,17,22.00
2018,04,26,12,18,22.00
2018,04,26,12,19,22.10
2018,04,26,12,20,22.10
2018,04,26,12,21,22.00
2018,04,26,12,22,22.10
2018,04,26,12,23,22.10
2018,04,26,12,24,22.20
2018,04,26,12,25,22.20
2018,04,26,12,26,22.20
2018,04,26,12,27,22.20
2018,04,26,12,28,22.20
2018,04,26,12,29,22.20
2018,04,26,12,30,22.20
2018,04,26,12,31,22.20
2018,04,26,12,32,22.10
2018,04,26,12,33,22.20
2018,04,26,12,34,22.20
2018,04,26,12,35,22.20
2018,04,26,12,36,22.20
2018,04,26,12,37,22.10
2018,04,26,12,38,22.00
2018,04,26,12,39,22.00
2018,04,26,12,40,22.00
2018,04,26,12,41,22.00
2018,04,26,12,42,22.00
2018,04,26,12,43,22.10
2018,04,26,12,44,22.10
2018,04,26,12,45,22.10
2018,04,26,12,46,22.10
2018,04,26,12,47,22.20
2018,04,26,12,48,22.20
2018,04,26,12,49,22.20
2018,04,26,12,50,22.30
2018,04,26,12,51,22.30
2018,04,26,12,52,22.40
2018,04,26,12,53,22.50
2018,04,26,12,54,22.50
2018,04,26,12,55,22.60
2018,04,26,12,56,22.60
2018,04,26,12,57,22.50
2018,04,26,12,58,22.50
2018,04,26,12,59,22.40
2018,04,26,13,00,22.40
2018,04,26,13,01,22.40
2018,04,26,13,02,22.40
2018,04,26,13,03,22.40
2018,04,26,13,04,22.50
2018,04,26,13,05,22.50
2018,04,26,13,06,22.60
2018,04,26,13,07,22.60
2018,04,26,13,08,22.70
2018,04,26,13,09,22.70
2018,04,26,13,10,22.70
2018,04,26,13,11,22.70
2018,04,26,13,12,22.70
2018,04,26,13,13,22.70
2018,04,26,13,14,22.70
2018,04,26,13,15,22.70
2018,04,26,13,16,22.70
2018,04,26,13,17,22.60
2018,04,26,13,18,22.70
2018,04,26,13,19,22.70
2018,04,26,13,20,22.80
2018,04,26,13,21,22.70
2018,04,26,13,22,22.70
2018,04,26,13,23,22.70
2018,04,26,13,24,22.70
2018,04,26,13,25,22.70
2018,04,26,13,26,22.60
2018,04,26,13,27,22.60
2018,04,26,13,28,22.50
2018,04,26,13,29,22.50
2018,04,26,13,30,22.50
2018,04,26,13,31,22.50
2018,04,26,13,32,22.60
2018,04,26,13,33,22.60
2018,04,26,13,34,22.70
2018,04,26,13,35,22.80
2018,04,26,13,36,22.80
2018,04,26,13,37,22.80
2018,04,26,13,38,22.90
2018,04,26,13,39,22.90
2018,04,26,13,40,22.90
2018,04,26,13,41,22.90
2018,04,26,13,42,23.00
2018,04,26,13,43,23.10
2018,04,26,13,44,23.10
2018,04,26,13,45,23.10
2018,04,26,13,46,23.10
2018,04,26,13,47,23.10
2018,04,26,13,48,23.10
2018,04,26,13,49,23.20
2018,04,26,13,50,23.30
2018,04,26,13,51,23.30
2018,04,26,13,52,23.30
2018,04,26,13,53,23.30
2018,04,26,13,54,23.30
2018,04,26,13,55,23.40
2018,04,26,13,56,23.40
2018,04,26,13,57,23.40
2018,04,26,13,58,23.50
2018,04,26,13,59,23.40
2018,04,26,14,00,23.30
2018,04,26,14,01,23.30
2018,04,26,14,02,23.30
2018,04,26,14,03,23.30
2018,04,26,14,04,23.30
2018,04,26,14,05,23.30
2018,04,26,14,06,23.40
2018,04,26,14,07,23.50
2018,04,26,14,08,23.60
2018,04,26,14,09,23.60
2018,04,26,14,10,23.70
2018,04,26,14,11,23.70
2018,04,26,14,12,23.70
2018,04,26,14,13,23.70
2018,04,26,14,14,23.70
2018,04,26,14,15,23.70
2018,04,26,14,16,23.70
2018,04,26,14,17,23.70
2018,04,26,14,18,23.70
2018,04,26,14,19,23.70
2018,04,26,14,20,23.60
2018,04,26,14,21,23.70
2018,04,26,14,22,23.70
2018,04,26,14,23,23.70
2018,04,26,14,24,23.70
2018,04,26,14,25,23.80
2018,04,26,14,26,23.90
2018,04,26,14,27,24.10
2018,04,26,14,28,24.00
2018,04,26,14,29,23.90
2018,04,26,14,30,23.80
2018,04,26,14,31,23.80
2018,04,26,14,32,23.80
2018,04,26,14,33,23.80
2018,04,26,14,34,23.80
2018,04,26,14,35,23.90
2018,04,26,14,36,23.90
2018,04,26,14,37,23.90
2018,04,26,14,38,24.10
2018,04,26,14,39,24.10
2018,04,26,14,40,24.10
2018,04,26,14,41,24.10
2018,04,26,14,42,24.10
2018,04,26,14,43,24.10
2018,04,26,14,44,24.10
2018,04,26,14,45,24.10
2018,04,26,14,46,24.10
2018,04,26,14,47,24.10
2018,04,26,14,48,24.10
2018,04,26,14,49,24.10
2018,04,26,14,50,24.10
2018,04,26,14,51,24.10
2018,04,26,14,52,24.20
2018,04,26,14,53,24.20
2018,04,26,14,54,24.30
2018,04,26,14,55,24.30
2018,04,26,14,56,24.30
2018,04,26,14,57,24.30
2018,04,26,14,58,24.30
2018,04,26,14,59,24.30
2018,04,26,15,00,24.20
2018,04,26,15,01,24.10
2018,04,26,15,02,24.10
2018,04,26,15,03,24.00
2018,04,26,15,04,24.00
2018,04,26,15,05,24.10
2018,04,26,15,06,24.00
2018,04,26,15,07,23.90
2018,04,26,15,08,23.90
2018,04,26,15,09,23.80
2018,04,26,15,10,23.80
2018,04,26,15,11,23.80
2018,04,26,15,12,23.80
2018,04,26,15,13,23.80
2018,04,26,15,14,23.90
2018,04,26,15,15,23.90
2018,04,26,15,16,23.90
2018,04,26,15,17,23.90
2018,04,26,15,18,24.00
2018,04,26,15,19,24.10
2018,04,26,15,20,24.10
2018,04,26,15,21,24.20
2018,04,26,15,22,24.30
2018,04,26,15,23,24.30
2018,04,26,15,24,24.30
2018,04,26,15,25,24.30
2018,04,26,15,26,24.30
2018,04,26,15,27,24.30
2018,04,26,15,28,24.30
2018,04,26,15,29,24.20
2018,04,26,15,30,24.10
2018,04,26,15,31,24.10
2018,04,26,15,32,24.10
2018,04,26,15,33,24.10
2018,04,26,15,34,24.10
2018,04,26,15,35,24.10
2018,04,26,15,36,24.10
2018,04,26,15,37,24.10
2018,04,26,15,38,24.10
2018,04,26,15,39,24.10
2018,04,26,15,40,24.10
2018,04,26,15,41,24.10
2018,04,26,15,42,24.10
2018,04,26,15,43,24.10
2018,04,26,15,44,24.20
2018,04,26,15,45,24.30
2018,04,26,15,46,24.40
2018,04,26,15,47,24.40
2018,04,26,15,48,24.50
2018,04,26,15,49,24.50
2018,04,26,15,50,24.40
2018,04,26,15,51,24.40
2018,04,26,15,52,24.30
2018,04,26,15,53,24.20
2018,04,26,15,54,24.10
2018,04,26,15,55,24.10
2018,04,26,15,56,24.10
2018,04,26,15,57,24.10
2018,04,26,15,58,24.10
2018,04,26,15,59,24.10
2018,04,26,16,00,24.10
2018,04,26,16,01,24.00
2018,04,26,16,02,23.90
2018,04,26,16,03,23.90
2018,04,26,16,04,24.00
2018,04,26,16,05,24.10
2018,04,26,16,06,24.20
2018,04,26,16,07,24.20
2018,04,26,16,08,24.30
2018,04,26,16,09,24.40
2018,04,26,16,10,24.40
2018,04,26,16,11,24.40
2018,04,26,16,12,24.50
2018,04,26,16,13,24.50
2018,04,26,16,14,24.60
2018,04,26,16,15,24.60
2018,04,26,16,16,24.60
2018,04,26,16,17,24.60
2018,04,26,16,18,24.60
2018,04,26,16,19,24.50
2018,04,26,16,20,24.50
2018,04,26,16,21,24.40
2018,04,26,16,22,24.30
2018,04,26,16,23,24.20
2018,04,26,16,24,24.20
2018,04,26,16,25,24.10
2018,04,26,16,26,24.10
2018,04,26,16,27,24.10
2018,04,26,16,28,24.10
2018,04,26,16,29,24.20
2018,04,26,16,30,24.20
2018,04,26,16,31,24.20
2018,04,26,16,32,24.30
2018,04,26,16,33,24.20
2018,04,26,16,34,24.20
2018,04,26,16,35,24.30
2018,04,26,16,36,24.30
2018,04,26,16,37,24.40
2018,04,26,16,38,24.30
2018,04,26,16,39,24.30
2018,04,26,16,40,24.20
2018,04,26,16,41,24.20
2018,04,26,16,42,24.10
2018,04,26,16,43,24.10
2018,04,26,16,44,24.10
2018,04,26,16,45,24.10
2018,04,26,16,46,24.10
2018,04,26,16,47,24.10
2018,04,26,16,48,24.10
2018,04,26,16,49,24.10
2018,04,26,16,50,24.10
2018,04,26,16,51,24.10
2018,04,26,16,52,24.10
2018,04,26,16,53,24.10
2018,04,26,16,54,24.10
2018,04,26,16,55,24.10
2018,04,26,16,56,24.10
2018,04,26,16,57,24.10
2018,04,26,16,58,24.10
2018,04,26,16,59,24.20
2018,04,26,17,00,24.20
2018,04,26,17,01,24.20
2018,04,26,17,02,24.30
2018,04,26,17,03,24.30
2018,04,26,17,04,24.30
2018,04,26,17,05,24.30
2018,04,26,17,06,24.30
2018,04,26,17,07,24.40
2018,04,26,17,08,24.40
2018,04,26,17,09,24.40
2018,04,26,17,10,24.40
2018,04,26,17,11,24.30
2018,04,26,17,12,24.30
2018,04,26,17,13,24.30
2018,04,26,17,14,24.30
2018,04,26,17,15,24.30
2018,04,26,17,16,24.30
2018,04,26,17,17,24.30
2018,04,26,17,18,24.30
2018,04,26,17,19,24.30
2018,04,26,17,20,24.30
2018,04,26,17,21,24.30
2018,04,26,17,22,24.20
2018,04,26,17,23,24.30
2018,04,26,17,24,24.20
2018,04,26,17,25,24.20
2018,04,26,17,26,24.20
2018,04,26,17,27,24.10
2018,04,26,17,28,24.10
2018,04,26,17,29,24.10
2018,04,26,17,30,24.10
2018,04,26,17,31,24.10
2018,04,26,17,32,24.10
2018,04,26,17,33,24.10
2018,04,26,17,34,24.10
2018,04,26,17,35,24.10
2018,04,26,17,36,24.10
2018,04,26,17,37,24.10
2018,04,26,17,38,24.00
2018,04,26,17,39,24.10
2018,04,26,17,40,24.10
2018,04,26,17,41,24.10
2018,04,26,17,42,24.10
2018,04,26,17,43,24.10
2018,04,26,17,44,24.10
2018,04,26,17,45,24.10
2018,04,26,17,46,24.10
2018,04,26,17,47,24.10
2018,04,26,17,48,24.10
2018,04,26,17,49,24.10
2018,04,26,17,50,24.10
2018,04,26,17,51,24.10
2018,04,26,17,52,24.10
2018,04,26,17,53,24.10
2018,04,26,17,54,24.10
2018,04,26,17,55,24.20
2018,04,26,17,56,24.20
2018,04,26,17,57,24.30
2018,04,26,17,58,24.30
2018,04,26,17,59,24.30
2018,04,26,18,00,24.00
2018,04,26,18,01,23.50
2018,04,26,18,02,23.20
2018,04,26,18,03,22.80
2018,04,26,18,04,22.40
2018,04,26,18,05,22.10
2018,04,26,18,06,21.90
2018,04,26,18,07,21.60
2018,04,26,18,08,21.50
2018,04,26,18,09,21.30
2018,04,26,18,10,21.10
2018,04,26,18,11,21.00
2018,04,26,18,12,20.90
2018,04,26,18,13,20.80
2018,04,26,18,14,20.80
2018,04,26,18,15,20.70
2018,04,26,18,16,20.60
2018,04,26,18,17,20.50
2018,04,26,18,18,20.50
2018,04,26,18,19,20.50
2018,04,26,18,20,20.40
2018,04,26,18,21,20.50
2018,04,26,18,22,20.50
2018,04,26,18,23,20.50
2018,04,26,18,24,20.50
2018,04,26,18,25,20.50
2018,04,26,18,26,20.50
2018,04,26,18,27,20.50
2018,04,26,18,28,20.50
2018,04,26,18,29,20.50
2018,04,26,18,30,20.60
2018,04,26,18,31,20.60
2018,04,26,18,32,20.60
2018,04,26,18,33,20.60
2018,04,26,18,34,20.60
2018,04,26,18,35,20.60
2018,04,26,18,36,20.60
2018,04,26,18,37,20.60
2018,04,26,18,38,20.60
2018,04,26,18,39,20.60
2018,04,26,18,40,20.60
2018,04,26,18,41,20.60
2018,04,26,18,42,20.60
2018,04,26,18,43,20.60
2018,04,26,18,44,20.60
2018,04,26,18,45,20.60
2018,04,26,18,46,20.60
2018,04,26,18,47,20.60
2018,04,26,18,48,20.60
2018,04,26,18,49,20.50
2018,04,26,18,50,20.50
2018,04,26,18,51,20.50
2018,04,26,18,52,20.50
2018,04,26,18,53,20.50
2018,04,26,18,54,20.50
2018,04,26,18,55,20.40
2018,04,26,18,56,20.40
2018,04,26,18,57,20.40
2018,04,26,18,58,20.40
2018,04,26,18,59,20.40
2018,04,26,19,00,20.40
2018,04,26,19,01,20.30
2018,04,26,19,02,20.30
2018,04,26,19,03,20.20
2018,04,26,19,04,20.20
2018,04,26,19,05,20.20
2018,04,26,19,06,20.10
2018,04,26,19,07,20.00
2018,04,26,19,08,19.90
2018,04,26,19,09,19.90
2018,04,26,19,10,19.90
2018,04,26,19,11,19.90
2018,04,26,19,12,19.90
2018,04,26,19,13,19.90
2018,04,26,19,14,20.00
2018,04,26,19,15,20.10
2018,04,26,19,16,20.10
2018,04,26,19,17,20.20
2018,04,26,19,18,20.20
2018,04,26,19,19,20.20
2018,04,26,19,20,20.30
2018,04,26,19,21,20.30
2018,04,26,19,22,20.30
2018,04,26,19,23,20.30
2018,04,26,19,24,20.30
2018,04,26,19,25,20.30
2018,04,26,19,26,20.30
2018,04,26,19,27,20.30
2018,04,26,19,28,20.30
2018,04,26,19,29,20.30
2018,04,26,19,30,20.30
2018,04,26,19,31,20.30
2018,04,26,19,32,20.00
2018,04,26,19,33,19.70
2018,04,26,19,34,19.70
2018,04,26,19,35,19.70
2018,04,26,19,36,19.60
2018,04,26,19,37,19.60
2018,04,26,19,38,19.60
2018,04,26,19,39,19.50
2018,04,26,19,40,19.50
2018,04,26,19,41,19.40
2018,04,26,19,42,19.40
2018,04,26,19,43,19.40
2018,04,26,19,44,19.40
2018,04,26,19,45,19.30
2018,04,26,19,46,19.30
2018,04,26,19,47,19.30
2018,04,26,19,48,19.30
2018,04,26,19,49,19.30
2018,04,26,19,50,19.30
2018,04,26,19,51,19.30
2018,04,26,19,52,19.30
2018,04,26,19,53,19.20
2018,04,26,19,54,19.20
2018,04,26,19,55,19.20
2018,04,26,19,56,19.20
2018,04,26,19,57,19.20
2018,04,26,19,58,19.10
2018,04,26,19,59,19.10
2018,04,26,20,00,19.10
2018,04,26,20,01,19.10
2018,04,26,20,02,19.10
2018,04,26,20,03,19.00
2018,04,26,20,04,19.00
2018,04,26,20,05,19.00
2018,04,26,20,06,18.90
2018,04,26,20,07,18.90
2018,04,26,20,08,18.90
2018,04,26,20,09,18.90
2018,04,26,20,10,18.80
2018,04,26,20,11,18.80
2018,04,26,20,12,18.80
2018,04,26,20,13,18.80
2018,04,26,20,14,18.80
2018,04,26,20,15,18.70
2018,04,26,20,16,18.70
2018,04,26,20,17,18.70
2018,04,26,20,18,18.60
2018,04,26,20,19,18.50
2018,04,26,20,20,18.50
2018,04,26,20,21,18.40
2018,04,26,20,22,18.40
2018,04,26,20,23,18.40
2018,04,26,20,24,18.30
2018,04,26,20,25,18.20
2018,04,26,20,26,18.20
2018,04,26,20,27,18.10
2018,04,26,20,28,18.10
2018,04,26,20,29,18.00
2018,04,26,20,30,17.90
2018,04,26,20,31,17.90
2018,04,26,20,32,17.80
2018,04,26,20,33,17.80
2018,04,26,20,34,17.70
2018,04,26,20,35,17.70
2018,04,26,20,36,17.70
2018,04,26,20,37,17.60
2018,04,26,20,38,17.50
2018,04,26,20,39,17.50
2018,04,26,20,40,17.40
2018,04,26,20,41,17.40
2018,04,26,20,42,17.30
2018,04,26,20,43,17.20
2018,04,26,20,44,17.20
2018,04,26,20,45,17.10
2018,04,26,20,46,17.10
2018,04,26,20,47,17.00
2018,04,26,20,48,17.00
2018,04,26,20,49,16.90
2018,04,26,20,50,16.90
2018,04,26,20,51,16.90
2018,04,26,20,52,16.80
2018,04,26,20,53,16.80
2018,04,26,20,54,16.80
2018,04,26,20,55,16.70
2018,04,26,20,56,16.70
2018,04,26,20,57,16.60
2018,04,26,20,58,16.50
2018,04,26,20,59,16.50
2018,04,26,21,00,16.50
2018,04,26,21,01,16.30
2018,04,26,21,02,16.20
2018,04,26,21,03,16.20
2018,04,26,21,04,16.10
2018,04,26,21,05,16.10
2018,04,26,21,06,16.00
2018,04,26,21,07,15.90
2018,04,26,21,08,15.80
2018,04,26,21,09,15.80
2018,04,26,21,10,15.70
2018,04,26,21,11,15.60
2018,04,26,21,12,15.60
2018,04,26,21,13,15.50
2018,04,26,21,14,15.40
2018,04,26,21,15,15.40
2018,04,26,21,16,15.30
2018,04,26,21,17,15.30
2018,04,26,21,18,15.20
2018,04,26,21,19,15.20
2018,04,26,21,20,15.10
2018,04,26,21,21,15.10
2018,04,26,21,22,15.00
2018,04,26,21,23,14.90
2018,04,26,21,24,14.90
2018,04,26,21,25,14.90
2018,04,26,21,26,14.80
2018,04,26,21,27,14.80
2018,04,26,21,28,14.70
2018,04,26,21,29,14.70
2018,04,26,21,30,14.60
2018,04,26,21,31,14.60
2018,04,26,21,32,14.50
2018,04,26,21,33,14.50
2018,04,26,21,34,14.40
2018,04,26,21,35,14.40
2018,04,26,21,36,14.40
2018,04,26,21,37,14.30
2018,04,26,21,38,14.30
2018,04,26,21,39,14.30
2018,04,26,21,40,14.20
2018,04,26,21,41,14.20
2018,04,26,21,42,14.10
2018,04,26,21,43,14.10
2018,04,26,21,44,14.10
2018,04,26,21,45,14.10
2018,04,26,21,46,14.00
2018,04,26,21,47,13.90
2018,04,26,21,48,13.90
2018,04,26,21,49,13.90
2018,04,26,21,50,13.80
2018,04,26,21,51,13.80
2018,04,26,21,52,13.80
2018,04,26,21,53,13.70
2018,04,26,21,54,13.70
2018,04,26,21,55,13.70
2018,04,26,21,56,13.60
2018,04,26,21,57,13.60
2018,04,26,21,58,13.60
2018,04,26,21,59,13.60
2018,04,26,22,00,13.50
2018,04,26,22,01,13.50
2018,04,26,22,02,13.40
2018,04,26,22,03,13.40
2018,04,26,22,04,13.40
2018,04,26,22,05,13.30
2018,04,26,22,06,13.30
2018,04,26,22,07,13.30
2018,04,26,22,08,13.30
2018,04,26,22,09,13.20
2018,04,26,22,10,13.20
2018,04,26,22,11,13.20
2018,04,26,22,12,13.10
2018,04,26,22,13,13.10
2018,04,26,22,14,13.00
2018,04,26,22,15,13.00
2018,04,26,22,16,13.00
2018,04,26,22,17,12.90
2018,04,26,22,18,12.90
2018,04,26,22,19,12.90
2018,04,26,22,20,12.90
2018,04,26,22,21,12.80
2018,04,26,22,22,12.80
2018,04,26,22,23,12.80
2018,04,26,22,24,12.80
2018,04,26,22,25,12.80
2018,04,26,22,26,12.80
2018,04,26,22,27,12.80
2018,04,26,22,28,12.80
2018,04,26,22,29,12.80
2018,04,26,22,30,12.80
2018,04,26,22,31,12.80
2018,04,26,22,32,12.80
2018,04,26,22,33,12.70
2018,04,26,22,34,12.70
2018,04,26,22,35,12.70
2018,04,26,22,36,12.70
2018,04,26,22,37,12.70